DELTA 1 DEB

Satellite information

Favourite Embed

Satellite Type and Status

DEBRISIN ORBIT

Key statistics

Satellite DELTA 1 DEB at a glance.

Uptime

17231

Days in orbit

Revolutions

≈ 14.0

Per day

Orbit

SSO

Sun Synchronous Orbit

Inclination

99.0

Latest

Satellite identification and parameters

Extended collection of information and parameters for DELTA 1 DEB.

Object identification

Identified? True

Debris? True

Object name: DELTA 1 DEB

International designator: 1978-026GX

Object number (NORAD): 17765

Object ID (CCSDS): 17765

Country: UNITED STATES OF AMERICA (US)

Current information (Y/N): Y

RCS size: SMALL

Orbital parameters

Period: 102.954 minutes

Inclination: 99.0323 deg

SMA: 7276.501 km

Apoapsis: 928.385 km

Periapsis: 868.346 km

RAAN: 223.112 deg

Eccentricy: 0.0041255

Argument of periapsis: 337.2883 deg

Mean anomaly: 52.7062 deg

Mean motion: 13.98681764 rev/day

Mean motion (dot): 0.00000533 rev/day2

B* drag term: 0.00039907 1/REarth

Two-line elements (TLE)

Creation date: May 8, 2025, 3:01 a.m.

Reference frame: TEME

Reference center: EARTH

Epoch: May 7, 2025, 4:49 a.m. UTC

TLE line 0: 0 DELTA 1 DEB

TLE line 1: 1 17765U 78026GX 25127.20078109 .00000533 00000-0 39907-3 0 9995

TLE line 2: 2 17765 99.0323 223.1120 0041255 337.2883 52.7062 13.98681764 43200

Live tracking on map

Real-time ground track for satellite DELTA 1 DEB.

In-orbit conjunctions

A list of the most updated potential collisions computed for object DELTA 1 DEB.

Target Orbit TCA Probability of collision Miss distance Type
SL-16 DEB LEO 2025-03-30 08:58:55 0.0008038117 50.0 (m) DEBRIS
METEOR 2-17 DEB LEO 2025-02-11 13:08:50 0.0001595446 122.0 (m) DEBRIS
COSMOS 1408 DEB LEO 2024-11-15 01:17:45 0.0002144238 317.0 (m) DEBRIS
IRS 1B SSO 2024-09-24 20:42:32 0.0003228416 272.0 (m) PAYLOAD

Associated space launch

Earth observation satellite

DELTA 1 DEB was lifted into orbit during the mission ‘Delta 2910 | Landsat 3’, on board a Delta 2910 space rocket.

The launch took place on March 5, 1978, 5:54 p.m. from Space Launch Complex 2W.

For more information about the launch, click the button.

Launch to space Delta 2910 | Landsat 3
Delta 2910 | Landsat 3

Agency: N/A

Status: Launch Successful

Launch date: March 5, 1978, 5:54 p.m. UTC

Rocket: Delta 2910

Launch pad: Space Launch Complex 2W

Location: Vandenberg SFB, CA, USA

...

Latest news about this satellite

There are no fresh news available about this satellite. Check back as we update our databases every day.


Newsletter sign-up

Weekly statistics, charts and insights to help you stay on top of the space industry.